Time,TemperatureF,DewpointF,PressureIn,WindDirection,WindDirectionDegrees,WindSpeedMPH,WindSpeedGustMPH,Humidity,HourlyPrecipIn,Conditions,Clouds,dailyrainin,SoftwareType,DateUTC
2013-04-20 00:01:00,36.3,31.6,29.85,WSW,248,17.0,20.0,83,0.00,,SKC,0.33,VWS V14.01,2013-04-20 04:01:00,
2013-04-20 00:06:00,36.2,31.2,29.85,SW,227,10.0,16.0,82,0.00,,SKC,0.00,VWS V14.01,2013-04-20 04:06:00,
2013-04-20 00:11:00,36.2,31.2,29.85,WSW,237,13.0,16.0,82,0.00,,SKC,0.00,VWS V14.01,2013-04-20 04:11:00,
2013-04-20 00:16:00,36.2,31.2,29.85,WSW,238,23.0,23.0,82,0.00,,SKC,0.00,VWS V14.01,2013-04-20 04:16:00,
2013-04-20 00:21:00,36.2,31.2,29.86,SW,231,16.0,17.0,82,0.00,,SKC,0.00,VWS V14.01,2013-04-20 04:21:00,
2013-04-20 00:26:00,36.3,31.3,29.86,WSW,258,18.0,18.0,82,0.00,,SKC,0.00,VWS V14.01,2013-04-20 04:26:00,
2013-04-20 00:31:00,36.4,31.4,29.86,SW,216,15.0,15.0,82,0.00,,SKC,0.00,VWS V14.01,2013-04-20 04:31:00,
2013-04-20 00:36:00,36.3,31.3,29.86,WSW,240,9.0,21.0,82,0.00,,SKC,0.00,VWS V14.01,2013-04-20 04:36:00,
2013-04-20 00:41:00,36.3,31.0,29.86,SW,236,10.0,17.0,81,0.00,,SKC,0.00,VWS V14.01,2013-04-20 04:41:00,
2013-04-20 00:46:00,36.3,31.3,29.86,WSW,254,9.0,12.0,82,0.00,,SKC,0.00,VWS V14.01,2013-04-20 04:46:00,
2013-04-20 00:51:00,36.4,31.4,29.86,WSW,248,13.0,15.0,82,0.00,,SKC,0.00,VWS V14.01,2013-04-20 04:51:00,
2013-04-20 00:56:00,36.4,31.1,29.86,WSW,238,10.0,15.0,81,0.00,,SKC,0.00,VWS V14.01,2013-04-20 04:56:00,
2013-04-20 01:01:00,36.3,31.0,29.87,WSW,248,8.0,17.0,81,0.00,,SKC,0.00,VWS V14.01,2013-04-20 05:01:00,
2013-04-20 01:06:00,36.4,31.1,29.87,WSW,245,12.0,17.0,81,0.00,,SKC,0.00,VWS V14.01,2013-04-20 05:06:00,
2013-04-20 01:12:00,36.3,30.7,29.87,WSW,255,17.0,23.0,80,0.00,,SKC,0.00,VWS V14.01,2013-04-20 05:12:00,
2013-04-20 01:17:00,36.4,30.5,29.87,WSW,247,18.0,18.0,79,0.00,,SKC,0.00,VWS V14.01,2013-04-20 05:17:00,
2013-04-20 01:22:00,36.2,30.0,29.88,WSW,244,13.0,17.0,78,0.00,,SKC,0.00,VWS V14.01,2013-04-20 05:22:00,
2013-04-20 01:27:00,36.0,30.1,29.88,SW,228,17.0,20.0,79,0.00,,SKC,0.00,VWS V14.01,2013-04-20 05:27:00,
2013-04-20 01:32:00,35.8,29.9,29.88,WSW,242,16.0,16.0,79,0.00,,SKC,0.00,VWS V14.01,2013-04-20 05:32:00,
2013-04-20 01:37:00,35.7,29.8,29.88,WNW,289,11.0,12.0,79,0.00,,SKC,0.00,VWS V14.01,2013-04-20 05:37:00,
2013-04-20 01:42:00,35.7,30.1,29.88,WSW,256,17.0,18.0,80,0.00,,SKC,0.00,VWS V14.01,2013-04-20 05:42:00,
2013-04-20 01:47:00,35.8,29.9,29.88,WSW,250,7.0,15.0,79,0.00,,SKC,0.00,VWS V14.01,2013-04-20 05:47:00,
2013-04-20 01:52:00,35.7,29.8,29.89,WSW,251,9.0,17.0,79,0.00,,SKC,0.00,VWS V14.01,2013-04-20 05:52:00,
2013-04-20 02:01:00,35.6,29.7,29.89,SW,225,8.0,12.0,79,0.00,,SKC,0.00,VWS V14.01,2013-04-20 06:01:00,
2013-04-20 02:06:00,35.2,30.0,29.89,West,265,7.0,13.0,81,0.00,,SKC,0.00,VWS V14.01,2013-04-20 06:06:00,
2013-04-20 02:11:00,35.0,29.8,29.89,WSW,238,12.0,12.0,81,0.00,,SKC,0.00,VWS V14.01,2013-04-20 06:11:00,
2013-04-20 02:16:00,34.8,29.9,29.89,WSW,254,9.0,12.0,82,0.00,,SKC,0.00,VWS V14.01,2013-04-20 06:16:00,
2013-04-20 02:21:00,34.5,29.9,29.90,WSW,240,14.0,14.0,83,0.00,,SKC,0.00,VWS V14.01,2013-04-20 06:21:00,
2013-04-20 02:26:00,34.4,29.8,29.90,WSW,252,10.0,16.0,83,0.00,,SKC,0.00,VWS V14.01,2013-04-20 06:26:00,
2013-04-20 02:31:00,34.4,29.8,29.90,SW,230,16.0,17.0,83,0.00,,SKC,0.00,VWS V14.01,2013-04-20 06:31:00,
2013-04-20 02:36:00,34.4,30.1,29.90,WSW,242,16.0,16.0,84,0.00,,SKC,0.00,VWS V14.01,2013-04-20 06:36:00,
2013-04-20 02:41:00,34.4,30.1,29.90,WSW,241,7.0,14.0,84,0.00,,SKC,0.00,VWS V14.01,2013-04-20 06:41:00,
2013-04-20 02:46:00,34.5,30.2,29.90,WSW,240,13.0,13.0,84,0.00,,SKC,0.00,VWS V14.01,2013-04-20 06:46:00,
2013-04-20 02:51:00,34.7,30.1,29.91,WSW,248,11.0,11.0,83,0.00,,SKC,0.00,VWS V14.01,2013-04-20 06:51:00,
2013-04-20 02:56:00,34.5,30.2,29.91,West,269,7.0,15.0,84,0.00,,SKC,0.00,VWS V14.01,2013-04-20 06:56:00,
2013-04-20 03:01:00,34.4,30.1,29.91,WSW,258,7.0,10.0,84,0.00,,SKC,0.00,VWS V14.01,2013-04-20 07:01:00,
2013-04-20 03:06:00,34.3,30.3,29.91,WSW,252,14.0,16.0,85,0.00,,SKC,0.00,VWS V14.01,2013-04-20 07:06:00,
2013-04-20 03:11:00,34.1,30.4,29.91,WSW,257,8.0,13.0,86,0.00,,SKC,0.00,VWS V14.01,2013-04-20 07:11:00,
2013-04-20 03:16:00,33.9,30.2,29.91,WSW,240,8.0,13.0,86,0.00,,SKC,0.00,VWS V14.01,2013-04-20 07:16:00,
2013-04-20 03:21:00,33.9,30.2,29.92,SW,236,14.0,15.0,86,0.00,,SKC,0.00,VWS V14.01,2013-04-20 07:21:00,
2013-04-20 03:26:00,33.9,30.5,29.92,WSW,247,6.0,11.0,87,0.00,,SKC,0.00,VWS V14.01,2013-04-20 07:26:00,
2013-04-20 03:31:00,34.0,30.3,29.92,WSW,248,10.0,11.0,86,0.00,,SKC,0.00,VWS V14.01,2013-04-20 07:31:00,
2013-04-20 03:36:00,34.1,30.6,29.92,WSW,238,7.0,10.0,87,0.00,,SKC,0.00,VWS V14.01,2013-04-20 07:36:00,
2013-04-20 03:41:00,34.1,30.6,29.93,SW,223,8.0,10.0,87,0.00,,SKC,0.00,VWS V14.01,2013-04-20 07:41:00,
2013-04-20 03:46:00,34.1,30.4,29.93,West,259,8.0,11.0,86,0.00,,SKC,0.00,VWS V14.01,2013-04-20 07:46:00,
2013-04-20 03:51:00,34.1,30.4,29.93,WSW,257,10.0,12.0,86,0.00,,SKC,0.00,VWS V14.01,2013-04-20 07:51:00,
2013-04-20 03:56:00,34.1,30.4,29.93,WSW,257,5.0,11.0,86,0.00,,SKC,0.00,VWS V14.01,2013-04-20 07:56:00,
2013-04-20 04:01:00,34.1,30.4,29.93,SW,226,12.0,12.0,86,0.00,,SKC,0.00,VWS V14.01,2013-04-20 08:01:00,
2013-04-20 04:06:00,34.0,30.3,29.93,WSW,257,10.0,14.0,86,0.00,,SKC,0.00,VWS V14.01,2013-04-20 08:06:00,
2013-04-20 04:11:00,33.9,30.2,29.93,WSW,252,11.0,16.0,86,0.00,,SKC,0.00,VWS V14.01,2013-04-20 08:11:00,
2013-04-20 04:16:00,33.9,29.9,29.93,WSW,257,15.0,16.0,85,0.00,,SKC,0.00,VWS V14.01,2013-04-20 08:16:00,
2013-04-20 04:21:00,33.9,29.9,29.93,West,262,10.0,15.0,85,0.00,,SKC,0.00,VWS V14.01,2013-04-20 08:21:00,
2013-04-20 04:26:00,33.9,29.6,29.94,WSW,254,11.0,16.0,84,0.00,,SKC,0.00,VWS V14.01,2013-04-20 08:26:00,
2013-04-20 04:31:00,34.0,29.4,29.94,WSW,247,13.0,14.0,83,0.00,,SKC,0.00,VWS V14.01,2013-04-20 08:31:00,
2013-04-20 04:36:00,33.9,29.0,29.94,West,269,7.0,18.0,82,0.00,,SKC,0.00,VWS V14.01,2013-04-20 08:36:00,
2013-04-20 04:41:00,33.9,29.0,29.94,WSW,248,7.0,19.0,82,0.00,,SKC,0.00,VWS V14.01,2013-04-20 08:41:00,
2013-04-20 04:46:00,33.8,28.9,29.94,WSW,237,10.0,13.0,82,0.00,,SKC,0.00,VWS V14.01,2013-04-20 08:46:00,
2013-04-20 04:52:00,33.7,28.8,29.95,WSW,257,15.0,16.0,82,0.00,,SKC,0.00,VWS V14.01,2013-04-20 08:52:00,
2013-04-20 04:57:00,33.7,29.1,29.95,WSW,257,8.0,12.0,83,0.00,,SKC,0.00,VWS V14.01,2013-04-20 08:57:00,
2013-04-20 05:02:00,33.6,29.0,29.95,West,260,13.0,17.0,83,0.00,,SKC,0.00,VWS V14.01,2013-04-20 09:02:00,
2013-04-20 05:07:00,33.5,28.9,29.96,WSW,257,9.0,16.0,83,0.00,,SKC,0.00,VWS V14.01,2013-04-20 09:07:00,
2013-04-20 05:12:00,33.4,28.8,29.96,SW,236,6.0,10.0,83,0.00,,SKC,0.00,VWS V14.01,2013-04-20 09:12:00,
2013-04-20 05:17:00,33.3,28.7,29.96,WSW,247,10.0,14.0,83,0.00,,SKC,0.00,VWS V14.01,2013-04-20 09:17:00,
2013-04-20 05:22:00,33.2,28.9,29.97,WSW,242,9.0,12.0,84,0.00,,SKC,0.00,VWS V14.01,2013-04-20 09:22:00,
2013-04-20 05:27:00,33.2,28.9,29.97,WSW,258,8.0,16.0,84,0.00,,SKC,0.00,VWS V14.01,2013-04-20 09:27:00,
2013-04-20 05:32:00,33.2,28.9,29.97,WSW,243,9.0,10.0,84,0.00,,SKC,0.00,VWS V14.01,2013-04-20 09:32:00,
2013-04-20 05:37:00,33.2,28.9,29.97,WSW,252,10.0,14.0,84,0.00,,SKC,0.00,VWS V14.01,2013-04-20 09:37:00,
2013-04-20 05:42:00,33.2,28.9,29.97,SW,236,7.0,10.0,84,0.00,,SKC,0.00,VWS V14.01,2013-04-20 09:42:00,
2013-04-20 05:47:00,33.3,29.0,29.97,WSW,240,10.0,11.0,84,0.00,,SKC,0.00,VWS V14.01,2013-04-20 09:47:00,
2013-04-20 05:52:00,33.4,29.1,29.97,WSW,237,12.0,14.0,84,0.00,,SKC,0.00,VWS V14.01,2013-04-20 09:52:00,
2013-04-20 05:57:00,33.4,29.4,29.98,WSW,238,8.0,13.0,85,0.00,,SKC,0.00,VWS V14.01,2013-04-20 09:57:00,
2013-04-20 06:02:00,33.6,29.6,29.98,WSW,256,10.0,18.0,85,0.00,,SKC,0.00,VWS V14.01,2013-04-20 10:02:00,
2013-04-20 06:07:00,33.7,29.7,29.99,WSW,255,14.0,14.0,85,0.00,,SKC,0.00,VWS V14.01,2013-04-20 10:07:00,
2013-04-20 06:12:00,33.8,29.8,29.99,West,270,4.0,10.0,85,0.00,,SKC,0.00,VWS V14.01,2013-04-20 10:12:00,
2013-04-20 06:17:00,33.8,29.8,29.99,West,259,8.0,13.0,85,0.00,,SKC,0.00,VWS V14.01,2013-04-20 10:17:00,
2013-04-20 06:22:00,33.7,29.7,30.00,NW,325,9.0,11.0,85,0.00,,SKC,0.00,VWS V14.01,2013-04-20 10:22:00,
2013-04-20 06:27:00,33.0,29.0,30.00,West,261,8.0,13.0,85,0.00,,SKC,0.00,VWS V14.01,2013-04-20 10:27:00,
2013-04-20 06:32:00,32.7,29.0,30.01,WSW,255,4.0,11.0,86,0.00,,SKC,0.00,VWS V14.01,2013-04-20 10:32:00,
2013-04-20 06:37:00,32.6,28.9,30.01,West,265,5.0,10.0,86,0.00,,SKC,0.00,VWS V14.01,2013-04-20 10:37:00,
2013-04-20 06:42:00,32.6,28.6,30.01,WSW,250,4.0,8.0,85,0.00,,SKC,0.00,VWS V14.01,2013-04-20 10:42:00,
2013-04-20 06:47:00,32.5,28.5,30.01,WSW,252,6.0,13.0,85,0.00,,SKC,0.00,VWS V14.01,2013-04-20 10:47:00,
2013-04-20 06:52:00,32.6,28.6,30.02,West,268,5.0,12.0,85,0.00,,SKC,0.00,VWS V14.01,2013-04-20 10:52:00,
2013-04-20 06:57:00,32.7,28.7,30.02,WSW,245,4.0,14.0,85,0.00,,SKC,0.00,VWS V14.01,2013-04-20 10:57:00,
2013-04-20 07:02:00,32.7,28.7,30.03,West,263,7.0,12.0,85,0.00,,SKC,0.00,VWS V14.01,2013-04-20 11:02:00,
2013-04-20 07:07:00,32.7,28.7,30.03,WSW,252,11.0,12.0,85,0.00,,SKC,0.00,VWS V14.01,2013-04-20 11:07:00,
2013-04-20 07:12:00,32.7,29.0,30.03,WSW,241,7.0,7.0,86,0.00,,SKC,0.00,VWS V14.01,2013-04-20 11:12:00,
2013-04-20 07:17:00,32.8,29.1,30.04,WSW,251,7.0,9.0,86,0.00,,SKC,0.00,VWS V14.01,2013-04-20 11:17:00,
2013-04-20 07:22:00,32.9,29.2,30.04,WSW,248,7.0,8.0,86,0.00,,SKC,0.00,VWS V14.01,2013-04-20 11:22:00,
2013-04-20 07:27:00,33.2,29.5,30.04,West,278,5.0,6.0,86,0.00,,SKC,0.00,VWS V14.01,2013-04-20 11:27:00,
2013-04-20 07:32:00,33.5,29.8,30.05,WSW,258,5.0,9.0,86,0.00,,SKC,0.00,VWS V14.01,2013-04-20 11:32:00,
2013-04-20 07:37:00,33.7,30.0,30.05,WSW,253,6.0,10.0,86,0.00,,SKC,0.00,VWS V14.01,2013-04-20 11:37:00,
2013-04-20 07:42:00,33.7,30.0,30.05,WSW,250,7.0,9.0,86,0.00,,SKC,0.00,VWS V14.01,2013-04-20 11:42:00,
2013-04-20 07:47:00,33.7,29.7,30.06,WSW,248,9.0,11.0,85,0.00,,SKC,0.00,VWS V14.01,2013-04-20 11:47:00,
2013-04-20 07:52:00,33.6,29.6,30.06,West,260,10.0,10.0,85,0.00,,SKC,0.00,VWS V14.01,2013-04-20 11:52:00,
2013-04-20 07:57:00,33.5,29.5,30.06,WSW,250,8.0,8.0,85,0.00,,SKC,0.00,VWS V14.01,2013-04-20 11:57:00,
2013-04-20 08:02:00,33.4,29.1,30.07,WSW,257,7.0,7.0,84,0.00,,SKC,0.00,VWS V14.01,2013-04-20 12:02:00,
2013-04-20 08:07:00,33.6,29.0,30.07,NW,304,3.0,7.0,83,0.00,,SKC,0.00,VWS V14.01,2013-04-20 12:07:00,
2013-04-20 08:13:00,34.2,28.7,30.08,West,279,10.0,11.0,80,0.00,,SKC,0.00,VWS V14.01,2013-04-20 12:13:00,
2013-04-20 08:18:00,34.5,28.0,30.08,WNW,282,4.0,15.0,77,0.00,,SKC,0.00,VWS V14.01,2013-04-20 12:18:00,
2013-04-20 08:23:00,34.8,27.7,30.08,WNW,284,9.0,9.0,75,0.00,,SKC,0.00,VWS V14.01,2013-04-20 12:23:00,
2013-04-20 08:28:00,35.0,27.2,30.09,West,271,9.0,14.0,73,0.00,,SKC,0.00,VWS V14.01,2013-04-20 12:28:00,
2013-04-20 08:33:00,35.2,27.8,30.09,West,262,6.0,11.0,74,0.00,,SKC,0.00,VWS V14.01,2013-04-20 12:33:00,
2013-04-20 08:38:00,35.5,27.4,30.09,West,273,5.0,13.0,72,0.00,,SKC,0.00,VWS V14.01,2013-04-20 12:38:00,
2013-04-20 08:43:00,35.8,27.3,30.10,WSW,237,9.0,15.0,71,0.00,,SKC,0.00,VWS V14.01,2013-04-20 12:43:00,
2013-04-20 08:48:00,35.7,26.9,30.10,WSW,255,6.0,11.0,70,0.00,,SKC,0.00,VWS V14.01,2013-04-20 12:48:00,
2013-04-20 08:53:00,36.1,26.9,30.10,West,265,13.0,16.0,69,0.00,,SKC,0.00,VWS V14.01,2013-04-20 12:53:00,
2013-04-20 08:58:00,36.0,26.1,30.10,WNW,300,4.0,14.0,67,0.00,,SKC,0.00,VWS V14.01,2013-04-20 12:58:00,
2013-04-20 09:03:00,36.5,27.3,30.10,WNW,295,7.0,11.0,69,0.00,,SKC,0.00,VWS V14.01,2013-04-20 13:03:00,
2013-04-20 09:08:00,36.7,26.8,30.11,West,281,13.0,13.0,67,0.00,,SKC,0.00,VWS V14.01,2013-04-20 13:08:00,
2013-04-20 09:13:00,36.3,24.9,30.11,WNW,286,6.0,13.0,63,0.00,,SKC,0.00,VWS V14.01,2013-04-20 13:13:00,
2013-04-20 09:18:00,36.4,26.1,30.11,West,279,5.0,10.0,66,0.00,,SKC,0.00,VWS V14.01,2013-04-20 13:18:00,
2013-04-20 09:23:00,36.6,26.0,30.12,WSW,249,5.0,12.0,65,0.00,,SKC,0.00,VWS V14.01,2013-04-20 13:23:00,
2013-04-20 09:28:00,37.0,26.0,30.12,WNW,295,6.0,8.0,64,0.00,,SKC,0.00,VWS V14.01,2013-04-20 13:28:00,
2013-04-20 09:33:00,37.1,26.1,30.12,West,259,13.0,13.0,64,0.00,,SKC,0.00,VWS V14.01,2013-04-20 13:33:00,
2013-04-20 09:38:00,37.5,26.8,30.13,West,270,9.0,12.0,65,0.00,,SKC,0.00,VWS V14.01,2013-04-20 13:38:00,
2013-04-20 09:43:00,37.3,25.5,30.13,WNW,293,5.0,12.0,62,0.00,,SKC,0.00,VWS V14.01,2013-04-20 13:43:00,
2013-04-20 09:48:00,36.8,25.4,30.13,WNW,292,8.0,8.0,63,0.00,,SKC,0.00,VWS V14.01,2013-04-20 13:48:00,
2013-04-20 09:53:00,37.0,26.7,30.14,SW,228,4.0,8.0,66,0.01,,SKC,0.01,VWS V14.01,2013-04-20 13:53:00,
2013-04-20 09:58:00,37.6,26.5,30.14,WSW,250,13.0,13.0,64,0.01,,SKC,0.01,VWS V14.01,2013-04-20 13:58:00,
2013-04-20 10:03:00,37.7,26.6,30.14,WSW,255,12.0,13.0,64,0.01,,SKC,0.01,VWS V14.01,2013-04-20 14:03:00,
2013-04-20 10:08:00,37.9,26.5,30.14,West,274,6.0,8.0,63,0.01,,SKC,0.01,VWS V14.01,2013-04-20 14:08:00,
2013-04-20 10:13:00,38.0,26.1,30.15,West,276,6.0,20.0,62,0.01,,SKC,0.01,VWS V14.01,2013-04-20 14:13:00,
2013-04-20 10:18:00,38.4,25.7,30.15,West,273,6.0,17.0,60,0.01,,SKC,0.01,VWS V14.01,2013-04-20 14:18:00,
2013-04-20 10:23:00,38.3,25.6,30.15,WNW,296,10.0,10.0,60,0.01,,SKC,0.01,VWS V14.01,2013-04-20 14:23:00,
2013-04-20 10:28:00,38.1,25.9,30.15,NW,305,6.0,7.0,61,0.01,,SKC,0.01,VWS V14.01,2013-04-20 14:28:00,
2013-04-20 10:33:00,38.4,25.7,30.15,West,267,2.0,11.0,60,0.01,,SKC,0.01,VWS V14.01,2013-04-20 14:33:00,
2013-04-20 10:38:00,38.6,26.3,30.16,WNW,295,11.0,12.0,61,0.01,,SKC,0.01,VWS V14.01,2013-04-20 14:38:00,
2013-04-20 10:43:00,37.9,24.9,30.16,West,275,6.0,16.0,59,0.01,,SKC,0.01,VWS V14.01,2013-04-20 14:43:00,
2013-04-20 10:48:00,37.9,25.3,30.16,West,267,12.0,16.0,60,0.01,,SKC,0.01,VWS V14.01,2013-04-20 14:48:00,
2013-04-20 10:53:00,37.9,24.9,30.17,NW,313,7.0,12.0,59,0.01,,SKC,0.01,VWS V14.01,2013-04-20 14:53:00,
2013-04-20 10:58:00,38.5,26.6,30.17,WSW,250,8.0,15.0,62,0.01,,SKC,0.01,VWS V14.01,2013-04-20 14:58:00,
2013-04-20 11:03:00,39.7,27.0,30.17,West,273,10.0,11.0,60,0.00,,SKC,0.01,VWS V14.01,2013-04-20 15:03:00,
2013-04-20 11:08:00,40.5,27.7,30.17,WSW,256,8.0,8.0,60,0.00,,SKC,0.01,VWS V14.01,2013-04-20 15:08:00,
2013-04-20 11:13:00,40.6,26.6,30.17,WSW,240,5.0,10.0,57,0.00,,SKC,0.01,VWS V14.01,2013-04-20 15:13:00,
2013-04-20 11:18:00,39.4,25.5,30.18,West,273,11.0,11.0,57,0.00,,SKC,0.01,VWS V14.01,2013-04-20 15:18:00,
2013-04-20 11:23:00,39.0,25.9,30.18,West,262,5.0,9.0,59,0.00,,SKC,0.01,VWS V14.01,2013-04-20 15:23:00,
2013-04-20 11:28:00,39.3,26.6,30.18,NW,321,7.0,13.0,60,0.00,,SKC,0.01,VWS V14.01,2013-04-20 15:28:00,
2013-04-20 11:33:00,39.7,27.4,30.18,WSW,248,6.0,15.0,61,0.00,,SKC,0.01,VWS V14.01,2013-04-20 15:33:00,
2013-04-20 11:38:00,40.2,27.4,30.19,SW,225,9.0,19.0,60,0.00,,SKC,0.01,VWS V14.01,2013-04-20 15:38:00,
2013-04-20 11:43:00,40.8,27.6,30.19,West,265,9.0,15.0,59,0.00,,SKC,0.01,VWS V14.01,2013-04-20 15:43:00,
2013-04-20 11:48:00,40.7,26.7,30.20,NW,306,5.0,13.0,57,0.00,,SKC,0.01,VWS V14.01,2013-04-20 15:48:00,
2013-04-20 11:53:00,40.9,27.7,30.20,NW,306,8.0,15.0,59,0.00,,SKC,0.01,VWS V14.01,2013-04-20 15:53:00,
2013-04-20 11:58:00,41.0,27.8,30.20,WSW,257,5.0,11.0,59,0.00,,SKC,0.01,VWS V14.01,2013-04-20 15:58:00,
2013-04-20 12:03:00,41.6,28.4,30.20,WSW,252,8.0,14.0,59,0.00,,SKC,0.01,VWS V14.01,2013-04-20 16:03:00,
2013-04-20 12:08:00,40.9,25.1,30.20,WSW,246,10.0,10.0,53,0.00,,SKC,0.01,VWS V14.01,2013-04-20 16:08:00,
2013-04-20 12:13:00,41.0,27.8,30.20,WSW,250,9.0,13.0,59,0.00,,SKC,0.01,VWS V14.01,2013-04-20 16:13:00,
2013-04-20 12:18:00,41.6,27.1,30.20,WSW,258,15.0,16.0,56,0.00,,SKC,0.01,VWS V14.01,2013-04-20 16:18:00,
2013-04-20 12:23:00,41.7,27.6,30.20,WSW,249,5.0,12.0,57,0.00,,SKC,0.01,VWS V14.01,2013-04-20 16:23:00,
2013-04-20 12:28:00,43.1,29.8,30.20,WSW,242,11.0,11.0,59,0.00,,SKC,0.01,VWS V14.01,2013-04-20 16:28:00,
2013-04-20 12:33:00,42.8,26.9,30.20,WNW,291,7.0,11.0,53,0.00,,SKC,0.01,VWS V14.01,2013-04-20 16:33:00,
2013-04-20 12:39:00,42.3,26.9,30.21,SW,225,6.0,10.0,54,0.00,,SKC,0.01,VWS V14.01,2013-04-20 16:39:00,
2013-04-20 12:44:00,42.8,26.9,30.21,WSW,241,13.0,13.0,53,0.00,,SKC,0.01,VWS V14.01,2013-04-20 16:44:00,
2013-04-20 12:49:00,42.6,28.5,30.21,WSW,249,11.0,18.0,57,0.00,,SKC,0.01,VWS V14.01,2013-04-20 16:49:00,
2013-04-20 12:54:00,43.1,28.0,30.21,NW,306,8.0,8.0,55,0.00,,SKC,0.01,VWS V14.01,2013-04-20 16:54:00,
2013-04-20 12:59:00,41.9,26.0,30.22,WNW,286,8.0,9.0,53,0.00,,SKC,0.01,VWS V14.01,2013-04-20 16:59:00,
2013-04-20 13:04:00,41.4,27.3,30.22,NW,311,8.0,9.0,57,0.00,,SKC,0.01,VWS V14.01,2013-04-20 17:04:00,
2013-04-20 13:09:00,42.3,29.0,30.22,West,263,10.0,12.0,59,0.00,,SKC,0.01,VWS V14.01,2013-04-20 17:09:00,
2013-04-20 13:14:00,43.4,28.3,30.22,SW,236,10.0,18.0,55,0.00,,SKC,0.01,VWS V14.01,2013-04-20 17:14:00,
2013-04-20 13:19:00,43.7,28.6,30.22,WSW,244,10.0,15.0,55,0.00,,SKC,0.01,VWS V14.01,2013-04-20 17:19:00,
2013-04-20 13:24:00,43.1,27.1,30.22,WNW,299,6.0,13.0,53,0.00,,SKC,0.01,VWS V14.01,2013-04-20 17:24:00,
2013-04-20 13:29:00,42.3,26.9,30.22,WSW,240,10.0,10.0,54,0.00,,SKC,0.01,VWS V14.01,2013-04-20 17:29:00,
2013-04-20 13:34:00,42.5,27.0,30.22,WSW,257,8.0,14.0,54,0.00,,SKC,0.01,VWS V14.01,2013-04-20 17:34:00,
2013-04-20 13:39:00,42.3,26.9,30.22,West,270,9.0,13.0,54,0.00,,SKC,0.01,VWS V14.01,2013-04-20 17:39:00,
2013-04-20 13:44:00,42.6,26.7,30.22,WSW,251,7.0,17.0,53,0.00,,SKC,0.01,VWS V14.01,2013-04-20 17:44:00,
2013-04-20 13:49:00,43.1,28.5,30.22,WSW,241,17.0,17.0,56,0.00,,SKC,0.01,VWS V14.01,2013-04-20 17:49:00,
2013-04-20 13:54:00,43.8,28.2,30.22,WSW,250,8.0,14.0,54,0.00,,SKC,0.01,VWS V14.01,2013-04-20 17:54:00,
2013-04-20 13:59:00,44.2,28.2,30.22,SW,236,12.0,17.0,53,0.00,,SKC,0.01,VWS V14.01,2013-04-20 17:59:00,
2013-04-20 14:04:00,44.2,28.6,30.23,West,259,11.0,13.0,54,0.00,,SKC,0.01,VWS V14.01,2013-04-20 18:04:00,
2013-04-20 14:09:00,43.5,28.0,30.23,WNW,295,5.0,13.0,54,0.00,,SKC,0.01,VWS V14.01,2013-04-20 18:09:00,
2013-04-20 14:14:00,42.6,26.2,30.23,WSW,255,6.0,17.0,52,0.00,,SKC,0.01,VWS V14.01,2013-04-20 18:14:00,
2013-04-20 14:19:00,41.6,25.3,30.23,WNW,286,5.0,15.0,52,0.00,,SKC,0.01,VWS V14.01,2013-04-20 18:19:00,
2013-04-20 14:24:00,41.8,27.3,30.23,West,273,6.0,10.0,56,0.00,,SKC,0.01,VWS V14.01,2013-04-20 18:24:00,
2013-04-20 14:29:00,43.5,28.4,30.23,WSW,254,2.0,12.0,55,0.00,,SKC,0.01,VWS V14.01,2013-04-20 18:29:00,
2013-04-20 14:34:00,45.3,28.7,30.24,West,273,11.0,16.0,52,0.00,,SKC,0.01,VWS V14.01,2013-04-20 18:34:00,
2013-04-20 14:39:00,45.6,28.0,30.23,SW,236,5.0,15.0,50,0.00,,SKC,0.01,VWS V14.01,2013-04-20 18:39:00,
2013-04-20 14:44:00,45.1,27.1,30.24,WSW,255,6.0,15.0,49,0.00,,SKC,0.01,VWS V14.01,2013-04-20 18:44:00,
2013-04-20 14:49:00,44.3,26.9,30.24,West,268,16.0,16.0,50,0.00,,SKC,0.01,VWS V14.01,2013-04-20 18:49:00,
2013-04-20 14:54:00,43.6,27.1,30.24,West,264,7.0,12.0,52,0.00,,SKC,0.01,VWS V14.01,2013-04-20 18:54:00,
2013-04-20 14:59:00,43.0,26.1,30.24,NW,311,11.0,11.0,51,0.00,,SKC,0.01,VWS V14.01,2013-04-20 18:59:00,
2013-04-20 15:04:00,42.8,27.3,30.24,WNW,288,7.0,8.0,54,0.00,,SKC,0.01,VWS V14.01,2013-04-20 19:04:00,
2013-04-20 15:09:00,42.8,26.4,30.25,West,272,2.0,13.0,52,0.00,,SKC,0.01,VWS V14.01,2013-04-20 19:09:00,
2013-04-20 15:14:00,42.8,25.9,30.25,WNW,301,8.0,15.0,51,0.00,,SKC,0.01,VWS V14.01,2013-04-20 19:14:00,
2013-04-20 15:19:00,42.5,26.6,30.25,West,266,6.0,14.0,53,0.00,,SKC,0.01,VWS V14.01,2013-04-20 19:19:00,
2013-04-20 15:24:00,42.7,26.8,30.25,WNW,293,9.0,11.0,53,0.00,,SKC,0.01,VWS V14.01,2013-04-20 19:24:00,
2013-04-20 15:29:00,43.1,27.1,30.25,SW,230,10.0,10.0,53,0.00,,SKC,0.01,VWS V14.01,2013-04-20 19:29:00,
2013-04-20 15:34:00,43.4,27.0,30.25,WSW,252,6.0,13.0,52,0.00,,SKC,0.01,VWS V14.01,2013-04-20 19:34:00,
2013-04-20 15:39:00,43.8,27.3,30.26,WNW,288,5.0,13.0,52,0.00,,SKC,0.01,VWS V14.01,2013-04-20 19:39:00,
2013-04-20 15:44:00,44.1,28.5,30.26,WSW,248,7.0,14.0,54,0.00,,SKC,0.01,VWS V14.01,2013-04-20 19:44:00,
2013-04-20 15:50:00,44.4,27.9,30.26,NW,324,5.0,13.0,52,0.00,,SKC,0.01,VWS V14.01,2013-04-20 19:50:00,
2013-04-20 15:55:00,43.9,26.5,30.26,WNW,288,10.0,18.0,50,0.00,,SKC,0.01,VWS V14.01,2013-04-20 19:55:00,
2013-04-20 16:00:00,43.4,26.0,30.26,NW,310,10.0,16.0,50,0.00,,SKC,0.01,VWS V14.01,2013-04-20 20:00:00,
2013-04-20 16:05:00,43.9,27.9,30.26,WNW,298,6.0,14.0,53,0.00,,SKC,0.01,VWS V14.01,2013-04-20 20:05:00,
2013-04-20 16:10:00,44.0,27.0,30.26,WNW,303,8.0,10.0,51,0.00,,SKC,0.01,VWS V14.01,2013-04-20 20:10:00,
2013-04-20 16:15:00,43.4,27.0,30.27,West,267,5.0,11.0,52,0.00,,SKC,0.01,VWS V14.01,2013-04-20 20:15:00,
2013-04-20 16:20:00,43.8,27.3,30.27,West,259,4.0,10.0,52,0.00,,SKC,0.01,VWS V14.01,2013-04-20 20:20:00,
2013-04-20 16:25:00,44.7,26.7,30.27,WSW,258,7.0,10.0,49,0.00,,SKC,0.01,VWS V14.01,2013-04-20 20:25:00,
2013-04-20 16:30:00,45.2,28.2,30.27,West,272,11.0,13.0,51,0.00,,SKC,0.01,VWS V14.01,2013-04-20 20:30:00,
2013-04-20 16:35:00,45.0,27.0,30.27,West,277,5.0,12.0,49,0.00,,SKC,0.01,VWS V14.01,2013-04-20 20:35:00,
2013-04-20 16:40:00,44.2,26.3,30.27,NW,315,4.0,7.0,49,0.00,,SKC,0.01,VWS V14.01,2013-04-20 20:40:00,
2013-04-20 16:45:00,43.9,27.0,30.27,WSW,252,3.0,7.0,51,0.00,,SKC,0.01,VWS V14.01,2013-04-20 20:45:00,
2013-04-20 16:50:00,44.7,27.7,30.28,WSW,252,4.0,9.0,51,0.00,,SKC,0.01,VWS V14.01,2013-04-20 20:50:00,
2013-04-20 16:55:00,44.6,27.1,30.28,WNW,302,12.0,12.0,50,0.00,,SKC,0.01,VWS V14.01,2013-04-20 20:55:00,
2013-04-20 17:00:00,43.8,25.9,30.28,WNW,286,4.0,10.0,49,0.00,,SKC,0.01,VWS V14.01,2013-04-20 21:00:00,
2013-04-20 17:05:00,43.5,26.1,30.28,West,259,6.0,9.0,50,0.00,,SKC,0.01,VWS V14.01,2013-04-20 21:05:00,
2013-04-20 17:10:00,43.3,25.4,30.28,WNW,288,6.0,9.0,49,0.00,,SKC,0.01,VWS V14.01,2013-04-20 21:10:00,
2013-04-20 17:15:00,44.0,26.1,30.28,WNW,291,3.0,15.0,49,0.00,,SKC,0.01,VWS V14.01,2013-04-20 21:15:00,
2013-04-20 17:20:00,44.8,26.3,30.28,WSW,252,8.0,12.0,48,0.00,,SKC,0.01,VWS V14.01,2013-04-20 21:20:00,
2013-04-20 17:25:00,45.2,26.7,30.29,WSW,246,18.0,18.0,48,0.00,,SKC,0.01,VWS V14.01,2013-04-20 21:25:00,
2013-04-20 17:30:00,45.3,25.8,30.29,NW,304,7.0,14.0,46,0.00,,SKC,0.01,VWS V14.01,2013-04-20 21:30:00,
2013-04-20 17:35:00,44.9,25.9,30.29,NW,308,5.0,15.0,47,0.00,,SKC,0.01,VWS V14.01,2013-04-20 21:35:00,
2013-04-20 17:40:00,44.0,26.1,30.29,NW,310,11.0,11.0,49,0.00,,SKC,0.01,VWS V14.01,2013-04-20 21:40:00,
2013-04-20 17:45:00,44.4,25.5,30.29,WNW,296,1.0,13.0,47,0.00,,SKC,0.01,VWS V14.01,2013-04-20 21:45:00,
2013-04-20 17:50:00,45.1,27.1,30.29,West,264,12.0,18.0,49,0.00,,SKC,0.01,VWS V14.01,2013-04-20 21:50:00,
2013-04-20 17:55:00,44.7,26.7,30.30,NW,313,5.0,14.0,49,0.00,,SKC,0.01,VWS V14.01,2013-04-20 21:55:00,
2013-04-20 18:00:00,43.7,25.3,30.30,WNW,288,9.0,12.0,48,0.00,,SKC,0.01,VWS V14.01,2013-04-20 22:00:00,
2013-04-20 18:05:00,43.7,25.8,30.30,WNW,300,5.0,10.0,49,0.00,,SKC,0.01,VWS V14.01,2013-04-20 22:05:00,
2013-04-20 18:10:00,44.2,26.8,30.30,West,261,6.0,9.0,50,0.00,,SKC,0.01,VWS V14.01,2013-04-20 22:10:00,
2013-04-20 18:15:00,44.7,25.7,30.30,WNW,286,9.0,17.0,47,0.00,,SKC,0.01,VWS V14.01,2013-04-20 22:15:00,
2013-04-20 18:20:00,44.1,25.2,30.30,NW,313,8.0,13.0,47,0.00,,SKC,0.01,VWS V14.01,2013-04-20 22:20:00,
2013-04-20 18:25:00,43.8,24.9,30.30,West,279,11.0,11.0,47,0.00,,SKC,0.01,VWS V14.01,2013-04-20 22:25:00,
2013-04-20 18:30:00,43.7,24.3,30.31,WNW,292,5.0,15.0,46,0.00,,SKC,0.01,VWS V14.01,2013-04-20 22:30:00,
2013-04-20 18:35:00,43.4,24.5,30.31,NW,319,8.0,8.0,47,0.00,,SKC,0.01,VWS V14.01,2013-04-20 22:35:00,
2013-04-20 18:40:00,43.6,25.2,30.31,NW,317,4.0,8.0,48,0.00,,SKC,0.01,VWS V14.01,2013-04-20 22:40:00,
2013-04-20 18:45:00,43.3,24.4,30.31,NW,304,8.0,11.0,47,0.00,,SKC,0.01,VWS V14.01,2013-04-20 22:45:00,
2013-04-20 18:50:00,43.0,24.2,30.31,NW,321,4.0,4.0,47,0.00,,SKC,0.01,VWS V14.01,2013-04-20 22:50:00,
2013-04-20 18:55:00,43.1,24.3,30.31,WNW,291,13.0,13.0,47,0.00,,SKC,0.01,VWS V14.01,2013-04-20 22:55:00,
2013-04-20 19:00:00,42.9,24.1,30.31,West,273,5.0,12.0,47,0.00,,SKC,0.01,VWS V14.01,2013-04-20 23:00:00,
2013-04-20 19:05:00,42.9,23.6,30.31,West,274,11.0,11.0,46,0.00,,SKC,0.01,VWS V14.01,2013-04-20 23:05:00,
2013-04-20 19:10:00,42.8,24.5,30.32,West,267,3.0,11.0,48,0.00,,SKC,0.01,VWS V14.01,2013-04-20 23:10:00,
2013-04-20 19:15:00,42.7,23.4,30.32,West,279,5.0,10.0,46,0.00,,SKC,0.01,VWS V14.01,2013-04-20 23:15:00,
2013-04-20 19:20:00,42.3,23.0,30.32,WNW,302,2.0,12.0,46,0.00,,SKC,0.01,VWS V14.01,2013-04-20 23:20:00,
2013-04-20 19:25:00,41.9,23.7,30.32,West,280,7.0,9.0,48,0.00,,SKC,0.01,VWS V14.01,2013-04-20 23:25:00,
2013-04-20 19:30:00,41.7,23.0,30.32,NW,320,4.0,12.0,47,0.00,,SKC,0.01,VWS V14.01,2013-04-20 23:30:00,
2013-04-20 19:35:00,41.5,22.8,30.32,NW,317,9.0,11.0,47,0.00,,SKC,0.01,VWS V14.01,2013-04-20 23:35:00,
2013-04-20 19:40:00,41.2,24.5,30.32,NW,312,10.0,14.0,51,0.00,,SKC,0.01,VWS V14.01,2013-04-20 23:40:00,
2013-04-20 19:45:00,40.8,24.1,30.32,NW,315,2.0,7.0,51,0.00,,SKC,0.01,VWS V14.01,2013-04-20 23:45:00,
2013-04-20 19:51:00,40.4,24.2,30.33,NW,323,4.0,6.0,52,0.00,,SKC,0.01,VWS V14.01,2013-04-20 23:51:00,
2013-04-20 19:56:00,40.1,23.9,30.33,NNW,342,8.0,9.0,52,0.00,,SKC,0.01,VWS V14.01,2013-04-20 23:56:00,
2013-04-20 20:01:00,39.7,23.1,30.33,NW,323,7.0,11.0,51,0.00,,SKC,0.01,VWS V14.01,2013-04-21 00:01:00,
2013-04-20 20:06:00,39.4,22.3,30.34,NW,321,4.0,7.0,50,0.00,,SKC,0.01,VWS V14.01,2013-04-21 00:06:00,
2013-04-20 20:11:00,39.1,22.5,30.34,NW,313,3.0,9.0,51,0.00,,SKC,0.01,VWS V14.01,2013-04-21 00:11:00,
2013-04-20 20:16:00,38.8,22.2,30.35,WNW,302,13.0,13.0,51,0.00,,SKC,0.01,VWS V14.01,2013-04-21 00:16:00,
2013-04-20 20:21:00,38.5,21.5,30.35,NW,305,2.0,7.0,50,0.00,,SKC,0.01,VWS V14.01,2013-04-21 00:21:00,
2013-04-20 20:26:00,38.3,22.2,30.35,NW,315,4.0,6.0,52,0.00,,SKC,0.01,VWS V14.01,2013-04-21 00:26:00,
2013-04-20 20:31:00,37.9,22.8,30.35,NW,326,3.0,6.0,54,0.00,,SKC,0.01,VWS V14.01,2013-04-21 00:31:00,
2013-04-20 20:36:00,37.6,22.9,30.36,NW,314,2.0,5.0,55,0.00,,SKC,0.01,VWS V14.01,2013-04-21 00:36:00,
2013-04-20 20:41:00,37.3,23.5,30.36,NW,312,2.0,5.0,57,0.00,,SKC,0.01,VWS V14.01,2013-04-21 00:41:00,
2013-04-20 20:46:00,36.8,23.0,30.36,NW,305,4.0,6.0,57,0.00,,SKC,0.01,VWS V14.01,2013-04-21 00:46:00,
2013-04-20 20:51:00,36.6,22.8,30.36,NW,319,4.0,6.0,57,0.00,,SKC,0.01,VWS V14.01,2013-04-21 00:51:00,
2013-04-20 20:56:00,36.5,22.7,30.37,NNW,328,5.0,6.0,57,0.00,,SKC,0.01,VWS V14.01,2013-04-21 00:56:00,
2013-04-20 21:01:00,36.4,22.6,30.37,NW,319,3.0,4.0,57,0.00,,SKC,0.01,VWS V14.01,2013-04-21 01:01:00,
2013-04-20 21:06:00,36.3,22.5,30.38,NW,323,3.0,8.0,57,0.00,,SKC,0.01,VWS V14.01,2013-04-21 01:06:00,
2013-04-20 21:11:00,36.2,22.5,30.38,NNW,327,4.0,5.0,57,0.00,,SKC,0.01,VWS V14.01,2013-04-21 01:11:00,
2013-04-20 21:16:00,36.1,22.4,30.38,NNW,327,2.0,5.0,57,0.00,,SKC,0.01,VWS V14.01,2013-04-21 01:16:00,
2013-04-20 21:21:00,36.1,22.4,30.38,NW,322,6.0,6.0,57,0.00,,SKC,0.01,VWS V14.01,2013-04-21 01:21:00,
2013-04-20 21:26:00,36.0,22.7,30.39,NW,325,5.0,5.0,58,0.00,,SKC,0.01,VWS V14.01,2013-04-21 01:26:00,
2013-04-20 21:31:00,35.8,22.1,30.39,NNW,329,3.0,6.0,57,0.00,,SKC,0.01,VWS V14.01,2013-04-21 01:31:00,
2013-04-20 21:36:00,35.7,21.6,30.39,NNW,329,3.0,5.0,56,0.00,,SKC,0.01,VWS V14.01,2013-04-21 01:36:00,
2013-04-20 21:41:00,35.6,21.9,30.40,NNW,327,3.0,3.0,57,0.00,,SKC,0.01,VWS V14.01,2013-04-21 01:41:00,
2013-04-20 21:46:00,35.4,22.5,30.40,NW,326,0.0,3.0,59,0.00,,SKC,0.01,VWS V14.01,2013-04-21 01:46:00,
2013-04-20 21:51:00,35.0,22.9,30.40,NW,326,1.0,2.0,61,0.00,,SKC,0.01,VWS V14.01,2013-04-21 01:51:00,
2013-04-20 21:57:00,34.6,22.9,30.41,NW,318,2.0,3.0,62,0.00,,SKC,0.01,VWS V14.01,2013-04-21 01:57:00,
2013-04-20 22:02:00,34.4,23.1,30.41,NW,324,3.0,4.0,63,0.00,,SKC,0.01,VWS V14.01,2013-04-21 02:02:00,
2013-04-20 22:07:00,34.1,23.2,30.41,NW,315,0.0,3.0,64,0.00,,SKC,0.01,VWS V14.01,2013-04-21 02:07:00,
2013-04-20 22:12:00,33.9,23.4,30.42,NW,315,0.0,3.0,65,0.00,,SKC,0.01,VWS V14.01,2013-04-21 02:12:00,
2013-04-20 22:17:00,33.6,23.5,30.42,NNW,331,2.0,4.0,66,0.00,,SKC,0.01,VWS V14.01,2013-04-21 02:17:00,
2013-04-20 22:22:00,33.4,22.2,30.42,NW,321,2.0,3.0,63,0.00,,SKC,0.01,VWS V14.01,2013-04-21 02:22:00,
2013-04-20 22:27:00,33.4,22.5,30.42,NNW,331,3.0,4.0,64,0.00,,SKC,0.01,VWS V14.01,2013-04-21 02:27:00,
2013-04-20 22:32:00,33.4,22.2,30.42,NNW,336,2.0,2.0,63,0.00,,SKC,0.01,VWS V14.01,2013-04-21 02:32:00,
2013-04-20 22:37:00,33.4,22.2,30.42,NNW,331,2.0,3.0,63,0.00,,SKC,0.01,VWS V14.01,2013-04-21 02:37:00,
2013-04-20 22:42:00,33.3,22.5,30.42,NNW,330,2.0,3.0,64,0.00,,SKC,0.01,VWS V14.01,2013-04-21 02:42:00,
2013-04-20 22:47:00,33.1,22.3,30.42,NNW,335,2.0,3.0,64,0.00,,SKC,0.01,VWS V14.01,2013-04-21 02:47:00,
2013-04-20 22:52:00,33.0,21.8,30.42,NNW,335,2.0,3.0,63,0.00,,SKC,0.01,VWS V14.01,2013-04-21 02:52:00,
2013-04-20 22:57:00,33.0,21.8,30.43,NNW,335,2.0,3.0,63,0.00,,SKC,0.01,VWS V14.01,2013-04-21 02:57:00,
2013-04-20 23:02:00,33.0,21.8,30.43,NNW,335,2.0,2.0,63,0.00,,SKC,0.01,VWS V14.01,2013-04-21 03:02:00,
2013-04-20 23:07:00,33.0,21.8,30.43,NNW,330,3.0,4.0,63,0.00,,SKC,0.01,VWS V14.01,2013-04-21 03:07:00,
2013-04-20 23:12:00,33.0,22.5,30.43,NNW,329,3.0,3.0,65,0.00,,SKC,0.01,VWS V14.01,2013-04-21 03:12:00,
2013-04-20 23:17:00,32.8,22.0,30.43,NNW,329,1.0,3.0,64,0.00,,SKC,0.01,VWS V14.01,2013-04-21 03:17:00,
2013-04-20 23:22:00,32.6,21.8,30.43,NNW,329,2.0,3.0,64,0.00,,SKC,0.01,VWS V14.01,2013-04-21 03:22:00,
2013-04-20 23:27:00,32.4,21.0,30.43,NNW,327,1.0,4.0,64,0.00,,,0.01,weatherlink.com 1.10,2013-04-21 03:27:00,
2013-04-20 23:32:00,32.4,22.7,30.43,NW,319,1.0,3.0,67,0.00,,SKC,0.01,VWS V14.01,2013-04-21 03:32:00,
2013-04-20 23:37:00,32.2,22.1,30.43,NNW,332,2.0,4.0,66,0.00,,SKC,0.01,VWS V14.01,2013-04-21 03:37:00,
2013-04-20 23:42:00,32.2,21.4,30.44,NNW,330,1.0,3.0,64,0.00,,SKC,0.01,VWS V14.01,2013-04-21 03:42:00,
2013-04-20 23:47:00,32.2,21.4,30.44,NNW,336,1.0,3.0,64,0.00,,SKC,0.01,VWS V14.01,2013-04-21 03:47:00,
2013-04-20 23:52:00,32.1,21.3,30.44,NNW,336,0.0,0.0,64,0.00,,SKC,0.01,VWS V14.01,2013-04-21 03:52:00,
2013-04-20 23:57:00,32.1,21.7,30.44,NNW,336,0.0,2.0,65,0.00,,SKC,0.01,VWS V14.01,2013-04-21 03:57:00,